Regional Weather Roundup
Issued by NWS Bismarck, ND

Home | Current Version | Previous Version | Text Only | Print | Product List | Glossary On
Versions: 1 2 3 4 5 6 7 8 9 10 11 12 13 14 15 16 17 18 19 20 21 22 23 24 25 26 27 28 29 30 31 32 33 34 35 36 37 38 39 40 41 42 43 44 45 46 47 48 49 50
896
ASUS43 KBIS 181802
RWRBIS

NWR BROADCAST TEXT
NATIONAL WEATHER SERVICE BISMARCK ND
1200 PM CST MON DEC 18 2017

NOTE: "FAIR" INDICATES FEW OR NO CLOUDS BELOW 12,000 FEET WITH NO
SIGNIFICANT WEATHER AND/OR OBSTRUCTIONS TO VISIBILITY.


CITY           SKY/WX    TMP DP  RH WIND       PRES   REMARKS
WILLISTON      LGT RAIN  36  34  92 SW10      29.58S
MINOT          LGT SNOW  35  32  88 W8        29.55F FOG
MINOT AFB      LGT SNOW  34  32  93 W8        29.54S FOG
BISMARCK       PTSUNNY   42  29  59 W13       29.61F
DICKINSON      FAIR      39  28  64 W20       29.58F
GARRISON         N/A     39  31  72 W15       29.55F
HETTINGER ARPT CLOUDY    46  23  40 W22       29.64F
JAMESTOWN      PTSUNNY   38  33  82 W18G26    29.55F
CARRINGTON     FAIR      39  32  75 W22G30    29.55F
LINTON           N/A     41  23  48 SW15      29.64F
OAKES            N/A     34  32  93 SW8       29.62F
TIOGA          LGT SNOW  32  32 100 W10       29.56R
$$

CITY           SKY/WX    TMP DP  RH WIND       PRES   REMARKS
GRAND FORKS    CLOUDY    33  29  85 S10       29.52F
GRAND FORKS AF CLOUDY    36  28  71 SW6       29.52S
DEVILS LAKE    CLOUDY    36  27  69 W15       29.52F
FARGO          CLOUDY    35  29  78 S13       29.58F
CANDO          CLOUDY    36  32  87 W13       29.52F
CAVALIER       FAIR      36  28  75 MISG      29.48F
GWINNER          N/A     34  28  80 SW10      29.61F
ROLLA          CLOUDY    36  27  69 W12       29.49S
WALHALLA       FAIR      36  30  80 W14       29.47S
$$

CITY           SKY/WX    TMP DP  RH WIND       PRES   REMARKS
ABERDEEN       CLOUDY    38  29  70 SW10      29.67F
MOBRIDGE       CLOUDY    41  28  60 SW3       29.65F
BUFFALO          N/A     47  25  42 SW13      29.60F
RAPID CITY     CLOUDY    47  24  40 S3        29.73F
GLASGOW        LGT RAIN  40  32  73 NW21G35   29.62R
SIDNEY         CLOUDY    43  35  73 W15G24    29.59F
WOLF POINT     CLOUDY    42  36  79 W7        29.60R
GLENDIVE       CLOUDY    41  32  70 W14       29.62F
MILES CITY     CLOUDY    47  28  47 W12       29.66S
BAKER          CLOUDY    43  25  49 W22G29    29.65S
$$

CITY           SKY/WX    TMP DP  RH WIND       PRES   REMARKS
BILLINGS       CLOUDY    39  26  59 SW20      29.75S
GREAT FALLS    CLOUDY    44  26  49 SW22      29.72R
$$





USA.gov is the U.S. government's official web portal to all federal, state and local government web resources and services.